Regional Weather Roundup
Issued by NWS

Home | Current Version | Previous Version | Graphics & Text | Print | Product List | Glossary On
Versions: 1 2 3 4 5 6 7 8 9 10 11 12 13 14 15 16 17 18 19 20 21 22 23 24 25 26 27 28 29 30 31 32 33 34 35 36 37 38 39 40 41 42 43 44 45 46 47 48 49 50
000
ASUS43 KBIS 060910
RWRND

NORTH DAKOTA REGIONAL WEATHER ROUNDUP
NATIONAL WEATHER SERVICE BISMARCK ND
300 AM CST SAT FEB 06 2016

NOTE: "FAIR" INDICATES FEW OR NO CLOUDS BELOW 12,000 FEET WITH NO
SIGNIFICANT WEATHER AND/OR OBSTRUCTIONS TO VISIBILITY.


NDZ001>003-009>011-017-061000-
NORTHWEST NORTH DAKOTA

CITY           SKY/WX    TMP DP  RH WIND       PRES   REMARKS
WILLISTON      CLOUDY    30  24  78 SW12      29.84F
MINOT          CLOUDY    33  21  61 S10       29.82F
MINOT AFB      CLOUDY    28  26  91 CALM      29.81F
$$

NDZ018>021-031>035-040>046-061000-
SOUTHWEST NORTH DAKOTA

CITY           SKY/WX    TMP DP  RH WIND       PRES   REMARKS
BISMARCK       CLEAR     32  22  66 SW5       29.95F
DICKINSON      CLOUDY    31  22  69 W17       29.90F WCI  19
GARRISON         N/A     27  22  81 SW7       29.87F WCI  19
HETTINGER ARPT CLOUDY    27  19  72 W6        29.99F
$$

NDZ004>008-012>016-024-026-027-054-061000-
NORTHEAST NORTH DAKOTA

CITY           SKY/WX    TMP DP  RH WIND       PRES   REMARKS
GRAND FORKS    CLOUDY    24  19  81 S8        29.97F WCI  15
GRND FRKS AFB  CLOUDY    23  18  83 S8        29.96F WCI  14
DEVILS LAKE    MOCLDY    22  19  89 SE6       29.90F WCI  14
$$

NDZ022-023-025-028>030-036>039-047>053-061000-
SOUTHEAST NORTH DAKOTA

CITY           SKY/WX    TMP DP  RH WIND       PRES   REMARKS
FARGO          CLOUDY    21  16  81 S8        30.02F WCI  11
JAMESTOWN      CLOUDY    25  20  81 S6        29.94F WCI  18
$$




USA.gov is the U.S. government's official web portal to all federal, state and local government web resources and services.